Location: Chippewa Lake
(41.0698°N, 81.9010°W)
Time: 12:18:42
(UTC+00:00)

Spot 2 Rocket - Pass Details

Date: 01 October 2021
Orbit: 758 x 771 km, 98.5° (Epoch: 23 October)

Event Time Altitude Azimuth Distance (km) Brightness Sun altitude
Exits shadow 03:11:46 11° 342° (NNW) 2,242 6.4 -42.8°
Drops below altitude 10° 03:11:54 10° 342° (NNW) 2,291 6.5 -42.8°
Sets 03:14:14 0° 345° (NNW) 3,229 7.4 -43.2°
